"startDT [UTC]","vpos","CH4 [ppm]","stdev(CH4) [ppm]","CO2 [ppm]","stdev(CO2) [ppm]","H2O_reported [%]","stdev(H2O_reported)","CavityPressure [torr]","CavityTemp [C]","OutletValve","CH4_dry [ppm]","CO2_dry [ppm]","DasTemp [C]","EtalonTemp [C]","WarmBoxTemp [C]","MPVPosition","T_ECpre [C]","T_EC1 [C]","T_EC2 [C]","p_inlet [hPa]","p_in [hPa]","p_out [hPa]","T_inlet [C]","RH_inlet [%]","dwpt_inlet [C]","T_vent [C]","RH_vent [%]","dwpt_vent [C]","flow_vent [l min-1]","flow_inlet [l min-1]","dwpt_sample [C]","T_room [C]"
2013-10-10 00:00:00,3.0,1.88821,0.02464,398.401,0.825,0.0982,0.1359,139.947,45.000,31050.93702,1.89646,399.048,32.813,45.057,45.000,0.00,0.11,-272.58,-272.64,-17,477,-0,18.8,12.1,-11.1,19.0,12.6,-10.4,5.73,2.50,-7.4,25.2
2013-10-10 00:01:00,3.0,1.87609,0.00041,397.104,0.060,0.0176,0.0015,140.005,45.000,31023.29309,1.87630,397.203,32.813,45.057,45.000,0.00,0.11,-272.57,-272.64,-17,477,-0,18.9,12.1,-11.1,19.0,12.6,-10.4,5.73,2.55,-7.4,25.3
2013-10-10 00:02:00,3.0,1.87656,0.00023,397.090,0.029,0.0179,0.0023,140.001,45.000,31010.11535,1.87691,397.175,32.813,45.057,45.000,0.00,0.12,-272.58,-272.64,-17,477,-0,18.9,12.1,-11.1,19.0,12.6,-10.4,5.73,2.55,-7.4,25.3
2013-10-10 00:03:00,3.0,1.87638,0.00018,397.234,0.080,0.0169,0.0017,139.996,45.000,31002.47958,1.87671,397.300,32.813,45.057,45.000,0.00,0.11,-272.58,-272.64,-17,477,-1,18.9,12.1,-11.1,19.0,12.6,-10.4,5.73,2.55,-7.4,25.4
2013-10-10 00:04:00,3.0,1.87649,0.00028,397.467,0.047,0.0133,0.0043,140.001,45.000,30997.35112,1.87671,397.524,32.813,45.057,45.000,0.00,0.12,-272.58,-272.64,-17,477,-1,18.9,12.1,-11.0,19.0,12.6,-10.4,5.73,2.55,-7.5,25.4
2013-10-10 00:05:00,3.0,1.87626,0.00035,397.539,0.017,0.0085,0.0022,140.001,45.000,30995.24546,1.87646,397.581,32.814,45.057,45.000,0.00,0.12,-272.58,-272.64,-17,477,-0,19.0,12.2,-10.9,19.0,12.7,-10.3,5.73,2.55,-7.4,25.4
2013-10-10 00:06:00,3.0,1.87657,0.00027,397.595,0.024,0.0079,0.0031,139.996,45.000,30989.13051,1.87662,397.626,32.813,45.057,45.000,0.00,0.12,-272.56,-272.63,-17,478,-0,19.0,12.2,-10.8,19.0,12.8,-10.2,5.73,2.55,-7.4,25.5
2013-10-10 00:07:00,3.0,1.87660,0.00038,397.635,0.044,0.0076,0.0022,140.003,45.000,30988.61661,1.87684,397.676,32.816,45.057,45.000,0.00,0.11,-272.59,-272.66,-17,478,-1,19.0,12.1,-10.9,19.1,12.7,-10.3,5.73,2.55,-7.5,25.5
2013-10-10 00:08:00,3.0,1.87671,0.00025,397.653,0.033,0.0066,0.0019,139.997,45.000,30986.60055,1.87677,397.675,32.813,45.057,45.000,0.00,0.12,-272.59,-272.64,-17,478,-1,19.0,12.1,-10.9,19.1,12.7,-10.3,5.73,2.55,-7.4,25.5
2013-10-10 00:09:00,3.0,1.87653,0.00029,397.694,0.051,0.0058,0.0026,140.008,45.000,30990.42470,1.87670,397.726,32.813,45.057,45.000,0.00,0.12,-272.58,-272.64,-17,479,-1,19.1,12.2,-10.8,19.2,12.7,-10.2,5.73,2.55,-7.4,25.5
2013-10-10 00:10:00,3.0,1.87633,0.00038,397.657,0.051,0.0039,0.0023,139.998,45.000,30988.74532,1.87640,397.671,32.813,45.057,45.000,0.00,0.11,-272.58,-272.64,-17,479,-1,19.1,12.1,-10.8,19.2,12.6,-10.3,5.73,2.55,-7.4,25.5
2013-10-10 00:11:00,3.0,1.87646,0.00029,397.674,0.010,0.0035,0.0014,140.007,45.000,30991.28899,1.87649,397.695,32.813,45.057,45.000,0.00,0.12,-272.58,-272.64,-17,479,-1,19.2,12.1,-10.8,19.2,12.6,-10.2,5.73,2.55,-7.4,25.6
2013-10-10 00:12:00,3.0,1.87657,0.00043,397.684,0.040,0.0043,0.0026,140.003,45.000,30988.40506,1.87661,397.707,32.813,45.057,45.000,0.00,0.12,-272.58,-272.63,-17,480,-1,19.2,12.0,-10.9,19.2,12.6,-10.3,5.73,2.56,-7.6,25.6
2013-10-10 00:13:00,3.0,1.87643,0.00019,397.651,0.023,0.0039,0.0022,139.998,45.000,30987.00263,1.87656,397.670,32.814,45.057,45.000,0.00,0.12,-272.58,-272.64,-17,480,-1,19.3,11.9,-10.9,19.3,12.5,-10.3,5.73,2.56,-7.4,25.7
2013-10-10 00:14:00,3.0,1.87657,0.00035,397.698,0.031,0.0028,0.0021,139.998,45.000,30988.62154,1.87655,397.706,32.813,45.057,45.000,0.00,0.11,-272.58,-272.64,-17,480,-1,19.3,11.9,-10.9,19.3,12.5,-10.3,5.73,2.55,-7.5,25.7
2013-10-10 00:15:00,3.0,1.87664,0.00051,397.650,0.037,0.0023,0.0021,140.002,45.000,30989.82054,1.87675,397.664,32.813,45.057,45.000,0.00,0.12,-272.57,-272.64,-17,480,-1,19.3,11.9,-10.9,19.4,12.4,-10.3,5.73,2.55,-7.4,25.7
2013-10-10 00:16:00,3.0,1.87699,0.00032,397.662,0.032,0.0028,0.0013,140.001,45.000,30991.63873,1.87697,397.673,32.813,45.057,45.000,0.00,0.11,-272.58,-272.64,-17,481,-1,19.4,11.8,-11.0,19.4,12.3,-10.4,5.73,2.56,-7.4,25.7
2013-10-10 00:17:00,3.0,1.87670,0.00030,397.671,0.038,0.0026,0.0018,140.005,45.000,30993.49521,1.87688,397.689,32.813,45.057,45.000,0.00,0.11,-272.58,-272.64,-17,481,-1,19.4,11.7,-11.1,19.4,12.2,-10.5,5.73,2.55,-7.4,25.7
2013-10-10 00:18:00,3.0,1.87685,0.00022,397.702,0.049,0.0020,0.0015,140.011,45.000,30994.88184,1.87682,397.711,32.813,45.057,45.000,0.00,0.12,-272.58,-272.64,-17,481,-1,19.4,11.6,-11.1,19.4,12.2,-10.5,5.73,2.56,-7.4,25.7
2013-10-10 00:19:00,3.0,1.87664,0.00016,397.680,0.023,0.0011,0.0036,140.004,45.000,30994.21197,1.87666,397.683,32.813,45.057,45.000,0.00,0.12,-272.58,-272.64,-17,481,-1,19.5,11.6,-11.1,19.5,12.2,-10.5,5.73,2.56,-7.4,25.8
2013-10-10 00:20:00,0.0,1.92148,0.01645,398.140,0.188,0.2627,0.1269,140.006,45.000,31562.62050,1.91998,399.244,32.813,45.057,45.000,0.00,0.11,-272.58,-272.64,-18,568,-1,19.5,11.6,-11.1,19.5,12.1,-10.5,5.73,2.56,-7.4,25.8
2013-10-10 00:21:00,0.0,1.92716,0.00025,398.000,0.029,0.3455,0.0017,140.006,45.000,31597.76057,1.93377,399.667,32.813,45.057,45.000,0.00,0.11,-272.57,-272.64,-17,568,-1,19.6,11.5,-11.1,19.5,12.1,-10.5,5.73,2.56,-7.4,25.9
2013-10-10 00:22:00,0.0,1.92706,0.00040,398.003,0.010,0.3456,0.0014,140.000,45.000,31608.63877,1.93371,399.675,32.813,45.057,45.000,0.00,0.12,-272.57,-272.64,-18,568,-1,19.6,11.5,-11.1,19.6,12.1,-10.5,5.73,2.56,-7.4,25.9
2013-10-10 00:23:00,0.0,1.92712,0.00027,397.956,0.018,0.3494,0.0023,140.005,45.000,31621.15319,1.93381,399.647,32.804,45.057,45.000,0.00,0.12,-272.57,-272.64,-18,568,-1,19.6,11.5,-11.1,19.6,12.1,-10.5,5.73,2.56,-7.4,25.9
2013-10-10 00:24:00,0.0,1.92728,0.00053,397.939,0.033,0.3497,0.0018,140.003,45.000,31628.42883,1.93400,399.631,32.813,45.057,45.000,0.00,0.12,-272.58,-272.64,-17,568,-1,19.6,11.5,-11.1,19.6,12.1,-10.5,5.73,2.56,-7.4,25.9
2013-10-10 00:25:00,0.0,1.92676,0.00025,397.900,0.037,0.3518,0.0012,140.001,45.000,31634.29940,1.93354,399.600,32.812,45.057,45.000,0.00,0.12,-272.57,-272.64,-18,569,-1,19.6,11.5,-11.0,19.6,12.1,-10.5,5.73,2.56,-7.4,25.9
2013-10-10 00:26:00,0.0,1.92630,0.00023,397.894,0.030,0.3521,0.0018,139.998,45.000,31639.48023,1.93305,399.599,32.802,45.057,45.000,0.00,0.12,-272.57,-272.64,-18,569,-1,19.6,11.5,-11.1,19.6,12.1,-10.5,5.73,2.56,-7.4,25.9
2013-10-10 00:27:00,0.0,1.92632,0.00034,397.867,0.043,0.3515,0.0013,139.999,45.000,31644.63219,1.93302,399.568,32.797,45.057,45.000,0.00,0.11,-272.58,-272.64,-18,569,-1,19.6,11.5,-11.1,19.6,12.1,-10.5,5.73,2.56,-7.4,25.9
2013-10-10 00:28:00,0.0,1.92664,0.00020,397.869,0.043,0.3499,0.0009,140.000,45.000,31648.83684,1.93331,399.557,32.764,45.057,45.000,0.00,0.12,-272.57,-272.64,-18,569,-1,19.6,11.5,-11.1,19.6,12.1,-10.5,5.73,2.56,-7.3,25.9
2013-10-10 00:29:00,0.0,1.92687,0.00021,397.895,0.022,0.3518,0.0020,140.002,45.000,31649.58233,1.93365,399.593,32.778,45.057,45.000,0.00,0.12,-272.57,-272.63,-18,569,-1,19.6,11.6,-11.0,19.6,12.1,-10.5,5.73,2.56,-7.3,25.9
2013-10-10 00:30:00,0.0,1.92615,0.00039,397.831,0.044,0.3501,0.0015,140.003,45.000,31653.88484,1.93293,399.523,32.768,45.057,45.000,0.00,0.11,-272.58,-272.64,-18,569,-1,19.6,11.5,-11.1,19.6,12.1,-10.5,5.73,2.56,-7.4,25.9
2013-10-10 00:31:00,0.0,1.92647,0.00038,397.874,0.009,0.3492,0.0015,139.995,45.000,31654.27931,1.93305,399.561,32.775,45.057,45.000,0.00,0.11,-272.58,-272.64,-18,569,-1,19.6,11.5,-11.1,19.6,12.0,-10.5,5.73,2.56,-7.4,25.9
2013-10-10 00:32:00,0.0,1.92644,0.00032,397.876,0.022,0.3525,0.0013,139.997,45.000,31658.29320,1.93320,399.580,32.777,45.057,45.000,0.00,0.12,-272.57,-272.64,-18,569,-1,19.6,11.5,-11.0,19.6,12.1,-10.5,5.73,2.56,-7.3,25.9
2013-10-10 00:33:00,0.0,1.92608,0.00024,397.862,0.042,0.3517,0.0023,140.002,45.000,31662.22156,1.93286,399.565,32.782,45.057,45.000,0.00,0.11,-272.57,-272.64,-18,569,-1,19.6,11.6,-11.0,19.6,12.1,-10.4,5.73,2.56,-7.4,25.9
2013-10-10 00:34:00,0.0,1.92613,0.00032,397.818,0.036,0.3529,0.0007,139.999,45.000,31661.83106,1.93283,399.521,32.799,45.057,45.000,0.00,0.12,-272.58,-272.64,-18,569,-1,19.6,11.6,-11.0,19.6,12.1,-10.4,5.73,2.55,-7.4,25.8
2013-10-10 00:35:00,0.0,1.92591,0.00044,397.867,0.023,0.3520,0.0029,140.003,45.000,31662.06802,1.93280,399.567,32.780,45.057,45.000,0.00,0.12,-272.57,-272.64,-18,569,-1,19.6,11.6,-11.1,19.6,12.1,-10.5,5.73,2.55,-7.3,25.8
2013-10-10 00:36:00,0.0,1.92627,0.00058,397.897,0.029,0.3504,0.0017,139.998,45.000,31661.01824,1.93284,399.590,32.802,45.057,45.000,0.00,0.12,-272.57,-272.64,-18,569,-1,19.5,11.6,-11.1,19.6,12.1,-10.5,5.73,2.56,-7.4,25.8
2013-10-10 00:37:00,0.0,1.92597,0.00036,397.936,0.044,0.3508,0.0012,140.003,45.000,31664.11639,1.93275,399.623,32.805,45.057,45.000,0.00,0.11,-272.58,-272.64,-18,569,-1,19.5,11.6,-11.1,19.6,12.1,-10.5,5.73,2.56,-7.4,25.8
2013-10-10 00:38:00,0.0,1.92619,0.00031,397.921,0.055,0.3517,0.0016,139.998,45.000,31662.13754,1.93294,399.630,32.803,45.057,45.000,0.00,0.12,-272.58,-272.64,-18,569,-1,19.5,11.6,-11.1,19.6,12.1,-10.5,5.73,2.56,-7.3,25.8
2013-10-10 00:39:00,0.0,1.92597,0.00049,397.877,0.048,0.3519,0.0021,140.004,45.000,31666.59561,1.93266,399.573,32.799,45.057,45.000,0.00,0.12,-272.58,-272.64,-17,569,-1,19.5,11.7,-11.0,19.6,12.1,-10.4,5.73,2.56,-7.3,25.7
2013-10-10 00:40:00,0.0,1.92590,0.00039,397.874,0.046,0.3556,0.0017,140.001,45.000,31665.33716,1.93271,399.590,32.810,45.057,45.000,0.00,0.11,-272.58,-272.64,-18,569,-1,19.5,11.7,-11.0,19.6,12.2,-10.4,5.73,2.56,-7.3,25.8
2013-10-10 00:41:00,0.0,1.92631,0.00036,397.914,0.029,0.3529,0.0024,140.007,45.000,31667.69105,1.93305,399.619,32.800,45.057,45.000,0.00,0.11,-272.58,-272.64,-18,569,-1,19.4,11.7,-11.0,19.6,12.2,-10.4,5.73,2.56,-7.3,25.8
2013-10-10 00:42:00,0.0,1.92645,0.00053,397.946,0.021,0.3548,0.0018,140.003,45.000,31666.26891,1.93318,399.662,32.781,45.057,45.000,0.00,0.12,-272.57,-272.64,-18,569,-1,19.4,11.7,-11.0,19.6,12.2,-10.4,5.73,2.56,-7.4,25.8
2013-10-10 00:43:00,0.0,1.92687,0.00032,397.866,0.020,0.3553,0.0018,139.996,45.000,31665.20278,1.93370,399.586,32.773,45.057,45.000,0.00,0.12,-272.57,-272.64,-18,569,-1,19.4,11.8,-10.9,19.6,12.3,-10.3,5.73,2.56,-7.3,25.7
2013-10-10 00:44:00,0.0,1.92650,0.00022,397.892,0.023,0.3551,0.0017,139.998,45.000,31665.43656,1.93335,399.606,32.776,45.057,45.000,0.00,0.11,-272.58,-272.64,-18,569,-1,19.4,11.8,-11.0,19.5,12.3,-10.3,5.73,2.56,-7.4,25.8
2013-10-10 00:45:00,0.0,1.92678,0.00059,397.890,0.027,0.3559,0.0018,139.996,45.000,31664.82621,1.93340,399.608,32.775,45.057,45.000,0.00,0.12,-272.57,-272.64,-17,569,-1,19.4,11.8,-11.0,19.5,12.3,-10.4,5.73,2.56,-7.3,25.8
2013-10-10 00:46:00,0.0,1.92705,0.00043,397.930,0.035,0.3566,0.0021,139.994,45.000,31663.44813,1.93405,399.655,32.781,45.057,45.000,0.00,0.12,-272.57,-272.64,-17,569,-1,19.4,11.8,-10.9,19.5,12.3,-10.3,5.73,2.56,-7.3,25.7
2013-10-10 00:47:00,0.0,1.92656,0.00032,397.951,0.052,0.3548,0.0032,139.999,45.000,31663.39271,1.93339,399.662,32.794,45.057,45.000,0.00,0.11,-272.58,-272.64,-17,569,-1,19.3,11.8,-11.0,19.5,12.3,-10.3,5.73,2.56,-7.4,25.7
2013-10-10 00:48:00,0.0,1.92585,0.00021,397.910,0.032,0.3545,0.0012,140.006,45.000,31665.78733,1.93266,399.630,32.760,45.057,45.000,0.00,0.12,-272.58,-272.64,-18,569,-1,19.3,11.8,-11.0,19.5,12.3,-10.4,5.73,2.56,-7.4,25.7
2013-10-10 00:49:00,0.0,1.92653,0.00048,397.976,0.057,0.3524,0.0023,140.001,45.000,31663.48826,1.93318,399.678,32.755,45.057,45.000,0.00,0.12,-272.57,-272.64,-17,569,-1,19.3,11.8,-11.1,19.5,12.2,-10.4,5.73,2.56,-7.3,25.7
2013-10-10 00:50:00,0.0,1.92656,0.00046,398.000,0.031,0.3513,0.0014,140.001,45.000,31665.27669,1.93324,399.692,32.754,45.057,45.000,0.00,0.12,-272.57,-272.64,-17,569,-1,19.3,11.8,-11.1,19.5,12.2,-10.5,5.73,2.56,-7.4,25.7
2013-10-10 00:51:00,0.0,1.92658,0.00035,398.037,0.026,0.3509,0.0019,140.008,45.000,31666.06873,1.93340,399.732,32.751,45.057,45.000,0.00,0.11,-272.58,-272.64,-17,569,-1,19.2,11.8,-11.1,19.4,12.2,-10.4,5.73,2.56,-7.3,25.6
2013-10-10 00:52:00,0.0,1.92678,0.00037,398.091,0.044,0.3536,0.0021,139.998,45.000,31661.59623,1.93348,399.797,32.750,45.057,45.000,0.00,0.12,-272.58,-272.64,-18,569,-1,19.2,11.9,-11.0,19.4,12.3,-10.4,5.73,2.56,-7.3,25.6
2013-10-10 00:53:00,0.0,1.92676,0.00048,398.143,0.052,0.3547,0.0017,139.999,45.000,31662.05211,1.93350,399.851,32.745,45.057,45.000,0.00,0.12,-272.57,-272.64,-17,568,-1,19.2,11.9,-11.0,19.4,12.3,-10.4,5.73,2.56,-7.4,25.6
2013-10-10 00:54:00,0.0,1.92681,0.00017,398.114,0.064,0.3538,0.0012,140.002,45.000,31663.62218,1.93367,399.835,32.746,45.057,45.000,0.00,0.11,-272.58,-272.64,-17,568,-1,19.2,11.9,-11.0,19.4,12.3,-10.4,5.73,2.56,-7.4,25.6
2013-10-10 00:55:00,0.0,1.92685,0.00035,398.091,0.023,0.3533,0.0020,140.001,45.000,31661.91996,1.93353,399.798,32.750,45.057,45.000,0.00,0.11,-272.58,-272.64,-17,568,-1,19.2,11.9,-11.0,19.4,12.4,-10.4,5.73,2.56,-7.4,25.6
2013-10-10 00:56:00,0.0,1.92753,0.00034,398.128,0.027,0.3537,0.0012,139.998,45.000,31659.73251,1.93431,399.836,32.750,45.057,45.000,0.00,0.12,-272.57,-272.64,-17,568,-1,19.2,11.9,-11.0,19.4,12.4,-10.4,5.73,2.56,-7.3,25.6
2013-10-10 00:57:00,0.0,1.92654,0.00063,398.032,0.018,0.3552,0.0014,139.999,45.000,31659.26650,1.93344,399.756,32.750,45.057,45.000,0.00,0.12,-272.57,-272.64,-17,568,-1,19.2,12.0,-11.0,19.4,12.4,-10.4,5.73,2.56,-7.4,25.6
2013-10-10 00:58:00,0.0,1.92698,0.00036,398.102,0.047,0.3534,0.0009,140.001,45.000,31660.05389,1.93369,399.805,32.750,45.057,45.000,0.00,0.11,-272.58,-272.64,-17,568,-1,19.1,11.9,-11.0,19.4,12.3,-10.4,5.73,2.56,-7.4,25.6
2013-10-10 00:59:00,0.0,1.92667,0.00030,398.047,0.026,0.3546,0.0011,140.002,45.000,31658.77334,1.93350,399.765,32.750,45.057,45.000,0.00,0.11,-272.57,-272.64,-17,568,-1,19.1,12.0,-11.0,19.4,12.4,-10.4,5.73,2.56,-7.4,25.6
2013-10-10 01:00:00,0.0,1.92653,0.00058,398.098,0.037,0.3537,0.0006,139.999,45.000,31656.80935,1.93324,399.803,32.748,45.057,45.000,0.00,0.12,-272.57,-272.64,-17,568,-1,19.1,12.0,-11.0,19.3,12.4,-10.4,5.73,2.56,-7.4,25.5
2013-10-10 01:01:00,0.0,1.92729,0.00016,398.103,0.022,0.3536,0.0016,140.004,45.000,31656.81567,1.93405,399.817,32.750,45.057,45.000,0.00,0.11,-272.58,-272.64,-17,568,-1,19.1,12.0,-11.0,19.3,12.4,-10.4,5.73,2.56,-7.4,25.5
2013-10-10 01:02:00,0.0,1.92658,0.00063,397.991,0.069,0.3565,0.0017,140.008,45.000,31658.33198,1.93352,399.720,32.749,45.057,45.000,0.00,0.12,-272.57,-272.64,-17,568,-1,19.1,12.1,-10.9,19.3,12.5,-10.3,5.73,2.56,-7.4,25.5
2013-10-10 01:03:00,0.0,1.92611,0.00037,398.016,0.032,0.3584,0.0016,139.998,45.000,31655.95366,1.93302,399.749,32.739,45.057,45.000,0.00,0.12,-272.57,-272.64,-17,568,-1,19.1,12.1,-10.9,19.3,12.5,-10.3,5.73,2.56,-7.4,25.5
2013-10-10 01:04:00,0.0,1.92618,0.00047,398.000,0.034,0.3571,0.0018,140.002,45.000,31657.31610,1.93294,399.720,32.738,45.057,45.000,0.00,0.12,-272.58,-272.64,-17,568,-1,19.1,12.1,-10.9,19.2,12.5,-10.4,5.73,2.57,-7.4,25.5
2013-10-10 01:05:00,0.0,1.92660,0.00032,398.030,0.061,0.3566,0.0010,140.004,45.000,31655.13646,1.93345,399.764,32.750,45.057,45.000,0.00,0.11,-272.58,-272.64,-17,568,-1,19.0,12.1,-10.9,19.3,12.5,-10.3,5.73,2.56,-7.4,25.4
2013-10-10 01:06:00,0.0,1.92574,0.00040,397.840,0.065,0.3589,0.0013,139.996,45.000,31653.70528,1.93271,399.573,32.750,45.057,45.000,0.00,0.12,-272.58,-272.64,-17,567,-1,19.0,12.2,-10.8,19.2,12.6,-10.2,5.73,2.56,-7.4,25.4
2013-10-10 01:07:00,0.0,1.92617,0.00048,397.938,0.034,0.3586,0.0010,140.002,45.000,31653.49712,1.93294,399.666,32.750,45.057,45.000,0.00,0.12,-272.58,-272.64,-17,567,-1,19.0,12.2,-10.8,19.2,12.6,-10.2,5.73,2.56,-7.4,25.4
2013-10-10 01:08:00,0.0,1.92629,0.00021,398.010,0.027,0.3593,0.0023,139.999,45.000,31654.35891,1.93315,399.748,32.750,45.057,45.000,0.00,0.11,-272.58,-272.64,-17,567,-1,19.0,12.2,-10.9,19.2,12.6,-10.3,5.73,2.57,-7.4,25.4
2013-10-10 01:09:00,0.0,1.92598,0.00054,397.928,0.109,0.3590,0.0021,139.998,45.000,31654.08699,1.93302,399.675,32.753,45.057,45.000,0.00,0.11,-272.58,-272.63,-18,567,-1,19.0,12.2,-10.9,19.2,12.7,-10.2,5.73,2.56,-7.4,25.4
2013-10-10 01:10:00,0.0,1.92539,0.00041,397.823,0.030,0.3620,0.0015,140.007,45.000,31656.03427,1.93231,399.567,32.750,45.057,45.000,0.00,0.12,-272.58,-272.64,-18,567,-1,19.0,12.3,-10.8,19.2,12.8,-10.1,5.73,2.56,-7.4,25.4
2013-10-10 01:11:00,0.0,1.92539,0.00016,397.884,0.028,0.3607,0.0014,140.000,45.000,31653.54545,1.93225,399.621,32.750,45.057,45.000,0.00,0.11,-272.58,-272.64,-17,567,-1,19.0,12.3,-10.8,19.2,12.8,-10.1,5.73,2.56,-7.5,25.4
2013-10-10 01:12:00,0.0,1.92611,0.00039,397.958,0.035,0.3612,0.0012,139.997,45.000,31653.22556,1.93299,399.703,32.750,45.057,45.000,0.00,0.12,-272.58,-272.64,-17,567,-1,19.0,12.3,-10.8,19.2,12.7,-10.2,5.73,2.56,-7.4,25.4
2013-10-10 01:13:00,0.0,1.92582,0.00033,397.990,0.028,0.3626,0.0017,140.001,45.000,31654.78810,1.93276,399.743,32.750,45.057,45.000,0.00,0.12,-272.57,-272.64,-17,567,-1,19.0,12.3,-10.7,19.2,12.8,-10.1,5.73,2.56,-7.4,25.4
2013-10-10 01:14:00,0.0,1.92637,0.00057,397.896,0.040,0.3656,0.0018,140.007,45.000,31654.72241,1.93347,399.674,32.750,45.057,45.000,0.00,0.11,-272.58,-272.64,-17,567,-1,19.0,12.4,-10.6,19.2,12.9,-10.0,5.73,2.56,-7.4,25.4
2013-10-10 01:15:00,0.0,1.92490,0.00037,397.802,0.038,0.3684,0.0015,140.004,45.000,31651.78336,1.93197,399.580,32.750,45.057,45.000,0.00,0.12,-272.58,-272.64,-17,567,-1,19.0,12.6,-10.5,19.2,13.0,-9.9,5.73,2.56,-7.4,25.4
2013-10-10 01:16:00,0.0,1.92542,0.00040,397.849,0.036,0.3644,0.0015,140.002,45.000,31647.49467,1.93232,399.611,32.750,45.057,45.000,0.00,0.11,-272.57,-272.64,-17,567,-1,19.0,12.5,-10.6,19.1,13.0,-10.0,5.73,2.56,-7.4,25.4
2013-10-10 01:17:00,0.0,1.92577,0.00050,397.873,0.031,0.3660,0.0018,139.999,45.000,31645.49358,1.93267,399.638,32.750,45.057,45.000,0.00,0.11,-272.55,-272.64,-17,567,-1,18.9,12.5,-10.6,19.1,13.0,-10.0,5.73,2.56,-7.4,25.4
2013-10-10 01:18:00,0.0,1.92597,0.00037,397.937,0.045,0.3687,0.0010,140.001,45.000,31646.67897,1.93311,399.721,32.750,45.057,45.000,0.00,0.11,-272.58,-272.64,-17,567,-1,18.9,12.5,-10.6,19.1,13.1,-9.9,5.73,2.56,-7.4,25.4
2013-10-10 01:19:00,0.0,1.92568,0.00037,397.913,0.026,0.3694,0.0014,140.003,45.000,31646.46769,1.93273,399.699,32.750,45.057,45.000,0.00,0.12,-272.58,-272.64,-17,567,-1,18.9,12.7,-10.4,19.1,13.2,-9.8,5.73,2.57,-7.4,25.3
2013-10-10 01:20:00,0.0,1.92581,0.00045,397.946,0.027,0.3691,0.0016,140.004,45.000,31647.84454,1.93286,399.726,32.750,45.057,45.000,0.00,0.12,-272.58,-272.64,-17,567,-1,18.9,12.7,-10.4,19.1,13.1,-9.8,5.73,2.56,-7.4,25.3
2013-10-10 01:21:00,0.0,1.92552,0.00028,397.926,0.045,0.3704,0.0014,139.996,45.000,31647.04006,1.93269,399.722,32.750,45.057,45.000,0.00,0.11,-272.58,-272.64,-17,567,-1,18.9,12.6,-10.4,19.1,13.1,-9.8,5.73,2.56,-7.4,25.4
2013-10-10 01:22:00,0.0,1.92552,0.00042,397.911,0.033,0.3731,0.0028,140.000,45.000,31649.90696,1.93274,399.714,32.750,45.057,45.000,0.00,0.11,-272.58,-272.64,-17,567,-1,18.9,12.6,-10.5,19.1,13.2,-9.8,5.73,2.56,-7.4,25.4
2013-10-10 01:23:00,0.0,1.92544,0.00035,397.906,0.033,0.3714,0.0013,140.007,45.000,31650.42707,1.93247,399.700,32.750,45.057,45.000,0.00,0.12,-272.58,-272.64,-17,567,-1,18.9,12.7,-10.4,19.1,13.2,-9.8,5.73,2.56,-7.4,25.3
2013-10-10 01:24:00,0.0,1.92577,0.00029,397.918,0.036,0.3727,0.0009,140.004,45.000,31646.44854,1.93288,399.722,32.753,45.057,45.000,0.00,0.11,-272.58,-272.64,-17,567,-1,18.9,12.7,-10.4,19.0,13.2,-9.8,5.73,2.56,-7.4,25.3
2013-10-10 01:25:00,0.0,1.92560,0.00044,397.958,0.017,0.3737,0.0017,140.000,45.000,31645.86444,1.93273,399.763,32.750,45.057,45.000,0.00,0.11,-272.58,-272.64,-17,566,-1,18.9,12.7,-10.4,19.1,13.3,-9.7,5.73,2.56,-7.4,25.4
2013-10-10 01:26:00,0.0,1.92556,0.00035,397.971,0.034,0.3734,0.0014,139.997,45.000,31647.10318,1.93282,399.774,32.750,45.057,45.000,0.00,0.12,-272.57,-272.64,-17,567,-1,18.9,12.8,-10.3,19.1,13.3,-9.7,5.73,2.56,-7.4,25.3
2013-10-10 01:27:00,0.0,1.92522,0.00024,397.942,0.017,0.3733,0.0021,139.999,45.000,31649.58996,1.93241,399.752,32.750,45.057,45.000,0.00,0.11,-272.57,-272.64,-17,566,-1,18.9,12.8,-10.3,19.1,13.3,-9.7,5.73,2.56,-7.4,25.3
2013-10-10 01:28:00,0.0,1.92507,0.00049,397.918,0.031,0.3745,0.0007,139.999,45.000,31650.14905,1.93229,399.733,32.750,45.057,45.000,0.00,0.11,-272.58,-272.64,-17,566,-1,18.9,12.8,-10.3,19.1,13.3,-9.7,5.73,2.56,-7.4,25.3
2013-10-10 01:29:00,0.0,1.92501,0.00046,397.932,0.040,0.3755,0.0014,139.996,45.000,31647.91446,1.93218,399.743,32.750,45.057,45.000,0.00,0.11,-272.57,-272.64,-17,566,-1,18.9,12.8,-10.3,19.1,13.3,-9.7,5.73,2.56,-7.4,25.3
2013-10-10 01:30:00,0.0,1.92497,0.00025,397.971,0.047,0.3742,0.0014,140.002,45.000,31649.90691,1.93209,399.781,32.750,45.057,45.000,0.00,0.12,-272.57,-272.64,-17,566,-1,18.9,12.8,-10.3,19.0,13.3,-9.7,5.73,2.57,-7.5,25.3
2013-10-10 01:31:00,0.0,1.92532,0.00025,397.974,0.021,0.3743,0.0018,140.010,45.000,31651.06159,1.93246,399.780,32.750,45.057,45.000,0.00,0.12,-272.58,-272.64,-17,566,-1,18.9,12.8,-10.3,19.1,13.3,-9.7,5.73,2.57,-7.4,25.3
2013-10-10 01:32:00,0.0,1.92532,0.00044,398.010,0.014,0.3763,0.0013,139.995,45.000,31645.48944,1.93245,399.830,32.750,45.057,45.000,0.00,0.11,-272.58,-272.64,-17,566,-1,18.9,12.9,-10.3,19.0,13.4,-9.7,5.73,2.56,-7.4,25.3
2013-10-10 01:33:00,0.0,1.92565,0.00033,398.015,0.035,0.3772,0.0020,140.000,45.000,31644.01433,1.93291,399.838,32.754,45.057,45.000,0.00,0.12,-272.58,-272.64,-17,566,-1,18.9,12.9,-10.2,19.0,13.4,-9.6,5.73,2.56,-7.4,25.3
2013-10-10 01:34:00,0.0,1.92557,0.00026,398.036,0.019,0.3758,0.0015,140.006,45.000,31645.65822,1.93279,399.854,32.751,45.057,45.000,0.00,0.11,-272.58,-272.64,-17,566,-1,18.9,12.9,-10.2,19.0,13.4,-9.6,5.73,2.56,-7.5,25.4
2013-10-10 01:35:00,0.0,1.92495,0.00061,398.016,0.036,0.3747,0.0014,139.998,45.000,31645.11368,1.93214,399.831,32.750,45.057,45.000,0.00,0.12,-272.58,-272.64,-17,566,-1,18.9,12.8,-10.3,19.1,13.4,-9.7,5.73,2.56,-7.4,25.3
2013-10-10 01:36:00,0.0,1.92547,0.00021,398.047,0.029,0.3740,0.0022,140.000,45.000,31646.69811,1.93262,399.853,32.750,45.057,45.000,0.00,0.12,-272.58,-272.64,-17,566,-1,18.9,12.8,-10.3,19.0,13.4,-9.7,5.73,2.56,-7.4,25.3
2013-10-10 01:37:00,0.0,1.92553,0.00028,398.001,0.032,0.3759,0.0015,140.001,45.000,31644.66493,1.93266,399.821,32.750,45.057,45.000,0.00,0.12,-272.58,-272.64,-17,566,-1,18.9,12.9,-10.2,19.0,13.4,-9.6,5.73,2.56,-7.4,25.3
2013-10-10 01:38:00,0.0,1.92590,0.00034,398.044,0.033,0.3765,0.0010,140.005,45.000,31646.09096,1.93314,399.867,32.750,45.057,45.000,0.00,0.11,-272.58,-272.64,-17,566,-1,18.9,12.9,-10.2,19.0,13.4,-9.6,5.73,2.56,-7.5,25.3
2013-10-10 01:39:00,0.0,1.92576,0.00052,398.067,0.030,0.3774,0.0018,140.006,45.000,31644.62637,1.93305,399.892,32.753,45.057,45.000,0.00,0.12,-272.57,-272.64,-17,566,-1,18.9,12.9,-10.2,19.0,13.5,-9.6,5.73,2.56,-7.6,25.3
2013-10-10 01:40:00,0.0,1.92562,0.00062,397.990,0.039,0.3778,0.0019,140.003,45.000,31644.88677,1.93279,399.824,32.759,45.057,45.000,0.00,0.12,-272.57,-272.64,-17,566,-1,18.9,12.9,-10.2,19.0,13.5,-9.6,5.73,2.56,-7.5,25.3
2013-10-10 01:41:00,0.0,1.92607,0.00043,397.994,0.028,0.3772,0.0016,139.997,45.000,31642.50703,1.93324,399.816,32.750,45.057,45.000,0.00,0.11,-272.58,-272.64,-17,566,-1,18.9,12.9,-10.2,19.0,13.5,-9.6,5.73,2.56,-7.5,25.3
2013-10-10 01:42:00,0.0,1.92571,0.00039,397.976,0.029,0.3764,0.0016,140.005,45.000,31646.52710,1.93307,399.799,32.750,45.057,45.000,0.00,0.12,-272.58,-272.64,-17,566,-1,18.9,12.9,-10.2,19.0,13.5,-9.6,5.73,2.56,-7.4,25.3
2013-10-10 01:43:00,0.0,1.92488,0.00030,397.943,0.011,0.3758,0.0011,139.997,45.000,31643.53392,1.93215,399.761,32.752,45.057,45.000,0.00,0.12,-272.58,-272.64,-17,566,-1,18.9,12.9,-10.3,19.0,13.4,-9.7,5.73,2.56,-7.4,25.3
2013-10-10 01:44:00,0.0,1.92470,0.00043,397.989,0.018,0.3726,0.0026,139.998,45.000,31642.55831,1.93191,399.791,32.751,45.057,45.000,0.00,0.12,-272.57,-272.64,-17,566,-1,18.9,12.8,-10.4,19.0,13.3,-9.7,5.73,2.56,-7.4,25.3
2013-10-10 01:45:00,0.0,1.92460,0.00029,397.998,0.024,0.3722,0.0012,140.005,45.000,31644.08567,1.93165,399.797,32.750,45.057,45.000,0.00,0.11,-272.58,-272.64,-17,566,-1,18.9,12.7,-10.4,19.0,13.3,-9.8,5.73,2.56,-7.4,25.3